Location: Gallinara
(44.0333°N, 8.2333°E)
Time: 16:18:25
(UTC+00:00)

H-2A R/B - Pass Details

Date: 25 September 2020
Orbit: 577 x 655 km, 98.5° (Epoch: 30 October)

Event Time Altitude Azimuth Distance (km) Brightness Sun altitude
Rises 04:06:52 0° 196° (SSW) 2,905 5.2 -13.5°
Reaches altitude 10° 04:09:21 10° 209° (SSW) 2,016 4.3 -13.1°
Maximum altitude 04:12:59 25° 265° (W) 1,298 3.1 -12.5°
Drops below altitude 10° 04:16:43 10° 321° (NW) 2,060 4.5 -11.8°
Sets 04:19:17 0° 335° (NNW) 2,984 5.4 -11.3°
